Ashburton, New Zealand
Current Conditions -  °F | °C
As of 12:30 AM on Tuesday 27 Jan 2015 (Local Time) from NZCH Reporting Station
Clear Clear  
Wind Chill: 63°   Ceiling: Unl
Heat Index: 63°   Visibility: 6mi
Dew Point: 59°   Wind: 13mph
Humidity: 88%   Direction: 80°E
Pressure: 29.85"   Gusts: NA
Location:  43.91°S, 171.75°E
Report Text: NZCH 261230Z AUTO 08011KT 9999 NCD 17/15 Q1011 NOSIG
Loading
Personal Weather Stations






























Interactive Weather Map New forecast layout! Learn more

10-Day Weather Forecast

Advertisements
Track Severe Weather on mobile